Location: Kawakawa
(35.3830°S, 174.0670°E)
Time: 00:13:52
(UTC+13:00)

A-11 Canister half - Pass Details

Date: 10 December 2019
Orbit: 1525 x 1684 km, 47.3° (Epoch: 25 January)

Event Time Altitude Azimuth Distance (km) Brightness Sun altitude
Rises 21:03:15 0° 273° (W) 4,690 12.5 -6.5°
Reaches altitude 10° 21:06:30 10° 266° (W) 3,704 12.1 -7.0°
Maximum altitude 21:15:21 45° 195° (SSW) 1,993 10.1 -8.5°
Drops below altitude 10° 21:24:19 10° 123° (ESE) 3,746 10.8 -9.9°
Sets 21:27:38 0° 116° (ESE) 4,747 11.3 -10.5°
